Clarksville, TN

9:38 PM CST on November 13, 2019 (GMT -0600)
Outlaw

Weather History for KCKV - October, 2019

Change the Weather History Date:

Sunday, October 13, 2019

  Actual Average Record
Temperature  
Mean Temperature 51 °F 60 °F  
Max Temperature 69 °F 72 °F 90 °F (1963)
Min Temperature 33 °F 47 °F 28 °F (1977)
Degree Days  
Heating Degree Days 14    
Month to date heating degree days 42  
Since 1 July heating degree days 42  
Cooling Degree Days 0    
Month to date cooling degree days 65  
Year to date cooling degree days 1785  
Growing Degree Days 1 (Base 50)    
Moisture  
Dew Point 37 °F    
Average Humidity 81    
Maximum Humidity 100    
Minimum Humidity 30    
Precipitation  
Precipitation 0.00 in 0.13 in 3.57 in (2001)
Month to date precipitation 3.24 1.67  
Year to date precipitation 43.65 38.33  
Sea Level Pressure  
Sea Level Pressure 30.05 in    
Wind  
Wind Speed 2 mph ()    
Max Wind Speed 13 mph    
Max Gust Speed 16 mph    
Visibility 5.0 miles    
Events Fog    
T = Trace of Precipitation, MM = Missing Value Source: Averaged Metar Reports

Daily Weather History Graph

Daily Weather History Graph

Search for Another Location

Airport or City:

Astronomy

Oct. 13, 2019 Rise Set
Actual Time 6:54 AM CDT 6:16 PM CDT
Civil Twilight 6:29 AM CDT 6:42 PM CDT
Nautical Twilight 5:59 AM CDT 7:12 PM CDT
Astronomical Twilight 5:29 AM CDT 7:41 PM CDT
Moon 6:37 PM CDT (10/13) 6:31 AM CDT (10/13)
Length of Visible Light 12h 13m
Length of Day
11h 21m
Full, 100% of the Moon is Illuminated
Oct 13
Full
Oct 13
Full
Oct 21
Last Quarter
Oct 27
New
Nov 4
First Quarter

Hourly Weather History & Observations

Time (CDT) Temp. Windchill Dew Point Humidity Pressure Visibility Wind Dir Wind Speed Gust Speed Precip Events Conditions
12:05 AM 39.0 °F 36.8 °F 37.9 °F 96% 30.07 in 1.8 mi SSE 3.5 mph - N/A   Clear
12:24 AM 37.9 °F - 37.0 °F 97% 30.06 in 0.8 mi Calm Calm - N/A   Mist
12:32 AM 37.9 °F 35.5 °F 37.0 °F 97% 30.06 in 1.5 mi SSE 3.5 mph - N/A   Partly Cloudy
12:34 AM 37.9 °F - 37.0 °F 97% 30.06 in 3.0 mi Calm Calm - N/A   Partly Cloudy
12:48 AM 39.2 °F - 37.4 °F 93% 30.06 in 2.5 mi Calm Calm - N/A   Partly Cloudy
12:52 AM 39.0 °F - 37.9 °F 96% 30.06 in 3.0 mi Calm Calm - N/A   Clear
1:52 AM 39.0 °F - 37.9 °F 96% 30.06 in 9.0 mi Calm Calm - N/A   Clear
2:25 AM 37.0 °F - 37.0 °F 100% 30.05 in 3.0 mi Calm Calm - N/A   Clear
2:52 AM 37.9 °F - 37.0 °F 97% 30.06 in 5.0 mi Calm Calm - N/A   Clear
3:00 AM 36.0 °F - 35.1 °F 97% 30.05 in 1.8 mi Calm Calm - N/A   Clear
3:09 AM 37.0 °F - 36.0 °F 96% 30.05 in 0.5 mi Calm Calm - N/A Fog Fog
3:31 AM 37.0 °F - 36.0 °F 96% 30.05 in 1.0 mi Calm Calm - N/A   Mist
3:39 AM 37.0 °F - 36.0 °F 96% 30.05 in 0.5 mi Calm Calm - N/A Fog Fog
3:52 AM 37.0 °F - 36.0 °F 96% 30.05 in 0.2 mi Calm Calm - N/A Fog Fog
4:34 AM 36.0 °F - 35.1 °F 97% 30.05 in 1.2 mi Calm Calm - N/A   Scattered Clouds
4:40 AM 36.0 °F - 36.0 °F 100% 30.05 in 0.8 mi Calm Calm - N/A   Mist
4:52 AM 35.1 °F - 35.1 °F 100% 30.06 in 0.8 mi Calm Calm - N/A   Mist
4:55 AM 35.1 °F - 34.0 °F 96% 30.05 in 2.0 mi Calm Calm - N/A   Partly Cloudy
5:00 AM 34.0 °F - 34.0 °F 100% 30.05 in 0.8 mi Calm Calm - N/A   Mist
5:52 AM 35.1 °F - 34.0 °F 96% 30.06 in 0.2 mi Calm Calm - N/A Fog Fog
6:52 AM 34.0 °F - 34.0 °F 100% 30.09 in 0.8 mi Calm Calm - N/A   Mist
7:15 AM 34.0 °F - 33.1 °F 96% 30.08 in 1.5 mi Calm Calm - N/A   Partly Cloudy
7:23 AM 34.0 °F 31.0 °F 33.1 °F 96% 30.08 in 1.0 mi SE 3.5 mph - N/A   Mist
7:30 AM 34.0 °F 31.0 °F 34.0 °F 100% 30.08 in 0.2 mi ESE 3.5 mph - N/A Fog Fog
7:52 AM 37.9 °F 35.5 °F 37.0 °F 97% 30.09 in 1.2 mi ESE 3.5 mph - N/A   Mostly Cloudy
7:57 AM 37.9 °F - 37.9 °F 100% 30.08 in 3.0 mi Calm Calm - N/A   Mostly Cloudy
8:07 AM 39.0 °F - 39.0 °F 100% 30.08 in 10.0 mi Calm Calm - N/A   Scattered Clouds
8:52 AM 44.1 °F - 42.1 °F 93% 30.09 in 10.0 mi Calm Calm - N/A   Clear
9:52 AM 53.1 °F - 45.0 °F 74% 30.09 in 10.0 mi SSW 3.5 mph - N/A   Clear
10:52 AM 59.0 °F - 41.0 °F 51% 30.08 in 10.0 mi SSW 5.8 mph - N/A   Clear
11:52 AM 62.1 °F - 39.9 °F 44% 30.06 in 10.0 mi Variable 4.6 mph - N/A   Clear
12:52 PM 64.9 °F - 37.9 °F 37% 30.04 in 10.0 mi Variable 6.9 mph - N/A   Clear
1:52 PM 66.9 °F - 37.9 °F 34% 30.01 in 10.0 mi South 9.2 mph - N/A   Clear
2:52 PM 68.0 °F - 36.0 °F 31% 30.00 in 10.0 mi Variable 5.8 mph - N/A   Clear
3:52 PM 69.1 °F - 37.0 °F 31% 29.99 in 10.0 mi WSW 9.2 mph - N/A   Clear
4:52 PM 68.0 °F - 35.1 °F 30% 29.99 in 10.0 mi WSW 9.2 mph - N/A   Clear
5:52 PM 64.9 °F - 37.0 °F 36% 30.00 in 10.0 mi WSW 4.6 mph - N/A   Clear
6:52 PM 60.1 °F - 37.9 °F 44% 30.00 in 10.0 mi Calm Calm - N/A   Clear
7:52 PM 55.0 °F - 41.0 °F 59% 30.02 in 10.0 mi WSW 3.5 mph - N/A   Clear
8:52 PM 53.1 °F - 42.1 °F 66% 30.03 in 10.0 mi SW 4.6 mph - N/A   Clear
9:52 PM 51.1 °F - 42.1 °F 71% 30.04 in 10.0 mi SW 3.5 mph - N/A   Clear
10:52 PM 46.9 °F - 42.1 °F 83% 30.06 in 10.0 mi Calm Calm - N/A   Clear
11:52 PM 45.0 °F - 41.0 °F 86% 30.06 in 10.0 mi Calm Calm - N/A   Clear